sat.trackr.live / text

‹ back to catalog

STARLINK-35909

NORAD 66496 · 2025-263M

PAYLOAD ACTIVE UNKNOWN

§ Identity

Operator
Country
US
Launch date
2025-11-15
Launch site
AFETR
Launch vehicle
Mass (kg)
RCS (m²)

Purposes: comms

External: N2YO · Heavens-Above · Gunter

§ Orbital elements

Epoch: 2026-05-24T18:44:25.958400Z

Period
94.27 min
Inclination
43.0022°
Eccentricity
0.0002037
Mean motion
15.27589839 rev/d
Perigee alt
481.6 km
Apogee alt
484.4 km
Semi-major
6,861.2 km
B*
2.7547e-4
RAAN
281.1815°
Arg perigee
273.6394°
Mean anomaly
86.4224°
Rev number
3,053

§ Raw data

STARLINK-359091 66496U 25263M   26144.78085600  .00007328  00000+0  27547-3 0  99972 66496  43.0022 281.1815 0002037 273.6394  86.4224 15.27589839 30530

JSON: /api/v1/satellites/66496 · /tle

For live sub-satellite position, see the globe view (requires WebGL).

§ Visibility from observer

Set your observer location to see the next 7 days of passes ≥ 10°. The values pass through the URL so the page stays shareable.

No JS? Fill the form by hand. The geolocation button needs JavaScript.